Location: Peterborough
(44.3091°N, 78.3197°W)
Time: 11:01:32
(UTC-04:00)

A-11 Canister half - Pass Details

Date: 15 September 2024
Orbit: 1515 x 1684 km, 47.2° (Epoch: 02 October)

Event Time Altitude Azimuth Distance (km) Brightness Sun altitude
Rises 20:18:56 0° 242° (WSW) 4,733 12.4 -10.8°
Reaches altitude 10° 20:22:01 10° 241° (WSW) 3,731 11.7 -11.3°
Maximum altitude 20:31:25 82° 156° (SSE) 1,541 8.9 -12.9°
Drops below altitude 10° 20:40:41 10° 70° (ENE) 3,678 10.5 -14.5°
Enters shadow 20:41:11 - 70° (ENE) 3,840 10.6 -14.6°
